Location: Góry Miechowskie
(50.3599°N, 20.1803°E)
Time: 07:36:15
(UTC+00:00)

Cosmos 1461 - Pass Details

Date: 20 September 2024
Orbit: 489 x 565 km, 65.0° (Epoch: 12 October)

Event Time Altitude Azimuth Distance (km) Brightness Sun altitude
Exits shadow 00:31:29 11° 360° (N) 1,642 5.8 -32.8°
Drops below altitude 10° 00:31:53 10° 6° (N) 1,697 5.9 -32.7°
Sets 00:35:19 0° 39° (NE) 2,594 7.4 -32.4°
